sat.trackr.live / text

‹ back to catalog

STARLINK-33908

NORAD 63700 · 2025-087D

PAYLOAD ACTIVE UNKNOWN

§ Identity

Operator
Country
US
Launch date
2025-04-28
Launch site
AFWTR
Launch vehicle
Mass (kg)
RCS (m²)

Purposes: comms

External: N2YO · Heavens-Above · Gunter

§ Orbital elements

Epoch: 2026-05-25T04:38:59.472960Z

Period
94.11 min
Inclination
53.1603°
Eccentricity
0.0001415
Mean motion
15.30204646 rev/d
Perigee alt
474.2 km
Apogee alt
476.2 km
Semi-major
6,853.3 km
B*
5.8514e-4
RAAN
224.1363°
Arg perigee
111.2018°
Mean anomaly
248.9134°
Rev number
6,091

§ Raw data

STARLINK-339081 63700U 25087D   26145.19374390  .00017013  00000+0  58514-3 0  99992 63700  53.1603 224.1363 0001415 111.2018 248.9134 15.30204646 60910

JSON: /api/v1/satellites/63700 · /tle

For live sub-satellite position, see the globe view (requires WebGL).

§ Visibility from observer

Set your observer location to see the next 7 days of passes ≥ 10°. The values pass through the URL so the page stays shareable.

No JS? Fill the form by hand. The geolocation button needs JavaScript.